Weather History for Oakdale, LA

Change the Weather History Date:

Tuesday, October 1, 2013

  Actual Average (KPOE) Record (KPOE)
Temperature  
Mean Temperature 78 °F -  
Max Temperature 86 °F 80 °F 93 °F (1998)
Min Temperature 69 °F 61 °F 50 °F (1999)
Cooling Degree Days 12    
Growing Degree Days 28 (Base 50)    
Moisture  
Dew Point 71 °F    
Average Humidity 90    
Maximum Humidity 96    
Minimum Humidity 58    
Precipitation  
Precipitation 0.52 in - - ()
Sea Level Pressure  
Sea Level Pressure 29.96 in    
Wind  
Wind Speed 1 mph (SE)    
Max Wind Speed 10 mph    
Max Gust Speed -    
Visibility 8 miles    
Events Rain , Thunderstorm    
Averages and records for this station are not official NWS values.
T = Trace of Precipitation, MM = Missing Value Source: NWS Daily Summary

Daily Weather History Graph

Daily Weather History Graph

Search for Another Location

Airport:

Trip Planner

Search our weather history database for the weather conditions in past years. The results will help you decide how hot, cold, wet, or windy it might be!

Date:

Astronomy

Oct. 01, 2013 Rise Set
Actual Time 7:04 AM CDT 6:55 PM CDT
Civil Twilight 6:40 AM CDT 7:19 PM CDT
Nautical Twilight 6:12 AM CDT 7:47 PM CDT
Astronomical Twilight 5:44 AM CDT 8:15 PM CDT
Moon 3:50 AM CDT (10/1) 4:50 PM CDT (10/1)
Length of Visible Light 12h 39m
Length of Day
11h 51m
Waning Crescent, 12% of the Moon is Illuminated
Oct 1
Waning Crescent
Oct 4
New
Oct 11
First Quarter
Oct 18
Full
Oct 26
Last Quarter

Hourly Weather History & Observations

Time (CDT) Temp. Heat Index Dew Point Humidity Pressure Visibility Wind Dir Wind Speed Gust Speed Precip Events Conditions
12:15 AM 70.7 °F - 69.4 °F 96% 29.92 in 5.0 mi Calm Calm - N/A   Overcast
12:35 AM 70.7 °F - 69.3 °F 95% 29.92 in 5.0 mi Calm Calm - N/A   Overcast
12:55 AM 70.7 °F - 69.4 °F 96% 29.93 in 7.0 mi ESE 3.5 mph - N/A   Overcast
1:15 AM 70.7 °F - 69.4 °F 96% 29.93 in 7.0 mi Calm Calm - N/A   Mostly Cloudy
1:35 AM 70.3 °F - 68.9 °F 95% 29.93 in 7.0 mi Calm Calm - N/A   Mostly Cloudy
1:55 AM 70.0 °F - 68.9 °F 96% 29.92 in 4.0 mi Calm Calm - N/A   Mostly Cloudy
2:15 AM 69.6 °F - 68.4 °F 96% 29.92 in 5.0 mi Calm Calm - N/A   Mostly Cloudy
2:35 AM 69.1 °F - 68.0 °F 96% 29.93 in 3.0 mi Calm Calm - N/A   Mostly Cloudy
2:55 AM 69.3 °F - 68.2 °F 96% 29.93 in 5.0 mi Calm Calm - N/A   Scattered Clouds
3:15 AM 69.3 °F - 68.2 °F 96% 29.92 in 7.0 mi Calm Calm - N/A   Scattered Clouds
3:35 AM 69.4 °F - 68.2 °F 96% 29.92 in 7.0 mi Calm Calm - N/A   Scattered Clouds
3:55 AM 70.0 °F - 68.9 °F 96% 29.92 in 10.0 mi Calm Calm - N/A   Mostly Cloudy
4:15 AM 70.3 °F - 69.1 °F 96% 29.92 in 7.0 mi Calm Calm - N/A   Overcast
4:35 AM 70.3 °F - 69.1 °F 96% 29.92 in 7.0 mi Calm Calm - N/A   Overcast
4:55 AM 70.2 °F - 68.9 °F 96% 29.92 in 5.0 mi Calm Calm - N/A   Overcast
5:15 AM 70.9 °F - 69.8 °F 96% 29.93 in 7.0 mi Calm Calm - N/A   Overcast
5:35 AM 71.1 °F - 69.8 °F 96% 29.94 in 7.0 mi Calm Calm - N/A   Overcast
5:55 AM 71.1 °F - 69.8 °F 96% 29.95 in 7.0 mi Calm Calm - N/A   Overcast
6:15 AM 71.2 °F - 70.0 °F 96% 29.95 in 7.0 mi Calm Calm - N/A   Overcast
6:35 AM 71.6 °F - 70.2 °F 95% 29.96 in 7.0 mi Calm Calm - N/A   Overcast
6:55 AM 71.6 °F - 70.3 °F 96% 29.96 in 7.0 mi Calm Calm - N/A   Overcast
7:15 AM 71.6 °F - 70.2 °F 95% 29.97 in 5.0 mi Calm Calm - N/A   Overcast
7:35 AM 71.1 °F - 69.8 °F 96% 29.97 in 4.0 mi Calm Calm - N/A   Mostly Cloudy
7:55 AM 71.8 °F - 70.3 °F 95% 29.98 in 10.0 mi Calm Calm - N/A   Mostly Cloudy
8:15 AM 72.5 °F - 70.9 °F 95% 29.98 in 7.0 mi Calm Calm - N/A   Overcast
8:35 AM 72.9 °F - 71.2 °F 95% 29.99 in 10.0 mi Calm Calm - N/A   Overcast
8:55 AM 73.4 °F - 71.8 °F 95% 29.99 in 10.0 mi ESE 4.6 mph - N/A   Scattered Clouds
9:15 AM 76.1 °F - 73.0 °F 90% 29.98 in 10.0 mi ESE 5.8 mph - N/A   Scattered Clouds
9:35 AM 77.0 °F - 73.0 °F 88% 29.99 in 10.0 mi ESE 4.6 mph - N/A   Mostly Cloudy
9:55 AM 78.3 °F - 72.9 °F 83% 29.99 in 10.0 mi ESE 4.6 mph - N/A   Scattered Clouds
10:15 AM 79.0 °F - 73.4 °F 83% 29.99 in 10.0 mi ESE 5.8 mph - N/A   Scattered Clouds
10:35 AM 80.1 °F 84.4 °F 73.4 °F 80% 29.99 in 10.0 mi SE 6.9 mph - N/A   Scattered Clouds
10:55 AM 82.0 °F 87.7 °F 73.6 °F 75% 30.00 in 10.0 mi ESE 6.9 mph - N/A   Scattered Clouds
11:15 AM 82.8 °F 88.7 °F 73.4 °F 73% 30.00 in 10.0 mi ESE 4.6 mph - N/A   Mostly Cloudy
11:35 AM 81.7 °F 86.7 °F 72.9 °F 74% 29.99 in 10.0 mi ESE 4.6 mph - N/A   Overcast
11:55 AM 82.0 °F 87.4 °F 72.9 °F 74% 30.00 in 10.0 mi ESE 6.9 mph - N/A   Overcast
12:15 PM 82.2 °F 87.1 °F 72.0 °F 71% 30.00 in 10.0 mi SE 5.8 mph - N/A   Mostly Cloudy
12:35 PM 83.5 °F 89.4 °F 72.9 °F 70% 29.99 in 10.0 mi SE 4.6 mph - N/A   Scattered Clouds
12:55 PM 84.0 °F 89.6 °F 72.1 °F 67% 29.98 in 10.0 mi SE 5.8 mph - N/A   Scattered Clouds
1:15 PM 84.9 °F 90.4 °F 71.4 °F 64% 29.97 in 10.0 mi SE 6.9 mph - N/A   Scattered Clouds
1:35 PM 86.4 °F 91.1 °F 69.8 °F 58% 29.96 in 10.0 mi SE 5.8 mph - N/A   Clear
1:55 PM 82.8 °F 86.4 °F 69.3 °F 64% 29.95 in 10.0 mi SSE 4.6 mph - N/A   Scattered Clouds
2:15 PM 80.1 °F 83.7 °F 71.4 °F 75% 29.96 in 10.0 mi SE 6.9 mph - N/A   Mostly Cloudy
2:35 PM 77.9 °F - 72.3 °F 83% 29.95 in 10.0 mi Calm Calm - N/A   Mostly Cloudy
2:55 PM 79.7 °F - 73.4 °F 81% 29.96 in 10.0 mi Calm Calm - N/A Thunderstorm Thunderstorm
3:15 PM 77.0 °F - 72.5 °F 86% 29.96 in 5.0 mi East 10.4 mph - N/A Rain , Thunderstorm Heavy Thunderstorms and Rain
3:35 PM 73.8 °F - 71.2 °F 92% 29.96 in 2.0 mi East 5.8 mph - N/A Rain , Thunderstorm Light Thunderstorms and Rain
3:55 PM 72.7 °F - 70.7 °F 93% 29.97 in 2.0 mi South 3.5 mph - N/A Rain , Thunderstorm Thunderstorms and Rain
4:15 PM 73.4 °F - 71.6 °F 94% 29.96 in 4.0 mi Calm Calm - 0.02 in Rain , Thunderstorm Thunderstorms and Rain
4:35 PM 73.9 °F - 72.5 °F 95% 29.95 in 10.0 mi Calm Calm - 0.06 in Rain Light Rain
4:55 PM 73.9 °F - 72.5 °F 95% 29.96 in 10.0 mi Calm Calm - 0.11 in   Mostly Cloudy
5:15 PM 74.3 °F - 72.7 °F 95% 29.96 in 10.0 mi Calm Calm - 0.04 in   Mostly Cloudy
5:35 PM 74.3 °F - 72.3 °F 94% 29.96 in 10.0 mi Calm Calm - 0.08 in   Light Drizzle
5:55 PM 75.2 °F - 72.7 °F 92% 29.97 in 10.0 mi East 4.6 mph - 0.12 in Thunderstorm Thunderstorm
6:15 PM 75.2 °F - 72.9 °F 92% 29.97 in 10.0 mi SE 3.5 mph - 0.03 in   Scattered Clouds
6:35 PM 74.8 °F - 72.9 °F 94% 29.97 in 10.0 mi Calm Calm - 0.06 in   Clear
6:55 PM 74.3 °F - 72.5 °F 94% 29.96 in 10.0 mi Calm Calm - 0.09 in   Clear
7:15 PM 73.0 °F - 71.6 °F 95% 29.95 in 5.0 mi Calm Calm - 0.02 in   Clear
7:35 PM 72.7 °F - 71.4 °F 96% 29.96 in 7.0 mi Calm Calm - 0.05 in   Clear
7:55 PM 72.0 °F - 70.7 °F 96% 29.96 in 7.0 mi SE 3.5 mph - 0.07 in   Clear
8:15 PM 72.1 °F - 70.7 °F 95% 29.97 in 10.0 mi Calm Calm - 0.01 in   Clear
8:35 PM 71.8 °F - 70.3 °F 95% 29.98 in 10.0 mi Calm Calm - 0.03 in   Clear
8:55 PM 71.4 °F - 70.0 °F 95% 30.00 in 7.0 mi Calm Calm - 0.05 in   Clear
9:15 PM 71.1 °F - 69.8 °F 96% 30.00 in 7.0 mi Calm Calm - 0.01 in   Clear
9:35 PM 70.7 °F - 69.6 °F 96% 30.01 in 5.0 mi Calm Calm - 0.03 in   Clear
9:55 PM 70.7 °F - 69.6 °F 96% 30.00 in 5.0 mi Calm Calm - 0.04 in   Clear
10:15 PM 70.2 °F - 68.9 °F 96% 30.00 in 5.0 mi Calm Calm - 0.01 in   Clear
10:35 PM 70.9 °F - 69.8 °F 96% 30.00 in 10.0 mi Calm Calm - 0.02 in   Clear
10:55 PM 70.7 °F - 69.3 °F 95% 30.00 in 7.0 mi Calm Calm - 0.03 in   Clear
11:15 PM 70.7 °F - 69.3 °F 95% 30.00 in 7.0 mi Calm Calm - N/A   Clear
11:35 PM 70.3 °F - 69.1 °F 96% 29.99 in 7.0 mi Calm Calm - 0.01 in   Mostly Cloudy
11:55 PM 70.7 °F - 69.3 °F 95% 29.99 in 7.0 mi Calm Calm - 0.01 in   Overcast